Weather History for Paynesville, MN

Change the Weather History Date:

Thursday, November 8, 2012

  Actual Average (KLJF) Record (KLJF)
Temperature  
Mean Temperature 42 °F -  
Max Temperature 51 °F 45 °F 80 °F (1999)
Min Temperature 33 °F 26 °F 4 °F (1991)
Degree Days  
Heating Degree Days 23    
Moisture  
Dew Point 34 °F    
Average Humidity 79    
Maximum Humidity 95    
Minimum Humidity 57    
Precipitation  
Precipitation 0.00 in - - ()
Sea Level Pressure  
Sea Level Pressure 29.95 in    
Wind  
Wind Speed 10 mph (SE)    
Max Wind Speed 16 mph    
Max Gust Speed 24 mph    
Visibility 10 miles    
Events      
Averages and records for this station are not official NWS values.
T = Trace of Precipitation, MM = Missing Value Source: NWS Daily Summary

Daily Weather History Graph

Daily Weather History Graph

Search for Another Location

Airport:

Trip Planner

Search our weather history database for the weather conditions in past years. The results will help you decide how hot, cold, wet, or windy it might be!

Date:

Astronomy

Nov. 08, 2012 Rise Set
Actual Time 7:08 AM CST 4:56 PM CST
Civil Twilight 6:37 AM CST 5:27 PM CST
Nautical Twilight 6:01 AM CST 6:03 PM CST
Astronomical Twilight 5:27 AM CST 6:37 PM CST
Moon 12:48 AM CST (11/8) 1:52 PM CST (11/8)
Length of Visible Light 10h 50m
Length of Day
9h 47m
Waning Crescent, 32% of the Moon is Illuminated
Nov 8
Waning Crescent
Nov 13
New
Nov 20
First Quarter
Nov 28
Full
Dec 6
Last Quarter

Hourly Weather History & Observations

Time (CST) Temp. Windchill Dew Point Humidity Pressure Visibility Wind Dir Wind Speed Gust Speed Precip Events Conditions
12:13 AM 37.4 °F 28.9 °F 32.0 °F 81% 29.99 in 10.0 mi SSE 13.8 mph 18.4 mph N/A   Clear
12:33 AM 37.0 °F 28.9 °F 32.0 °F 82% 29.99 in 10.0 mi SSE 12.7 mph - N/A   Clear
12:53 AM 37.4 °F 28.5 °F 31.8 °F 80% 29.97 in 10.0 mi SSE 15.0 mph 21.9 mph N/A   Clear
1:13 AM 37.4 °F 28.2 °F 31.8 °F 80% 29.96 in 10.0 mi SSE 16.1 mph 21.9 mph N/A   Clear
1:33 AM 37.4 °F 28.9 °F 31.8 °F 80% 29.95 in 10.0 mi SSE 13.8 mph 24.2 mph N/A   Clear
1:53 AM 37.0 °F 28.5 °F 31.8 °F 81% 29.95 in 10.0 mi SSE 13.8 mph 20.7 mph N/A   Clear
2:14 AM 37.2 °F 28.7 °F 31.8 °F 81% 29.94 in 10.0 mi SSE 13.8 mph 21.9 mph N/A   Clear
2:33 AM 37.4 °F 28.2 °F 32.0 °F 81% 29.94 in 10.0 mi SSE 16.1 mph 21.9 mph N/A   Clear
2:53 AM 37.0 °F 28.9 °F 31.8 °F 81% 29.93 in 10.0 mi SSE 12.7 mph 21.9 mph N/A   Clear
3:14 AM 36.9 °F 27.8 °F 32.0 °F 83% 29.93 in 10.0 mi SSE 15.0 mph 20.7 mph N/A   Clear
3:33 AM 36.7 °F 28.4 °F 31.8 °F 83% 29.92 in 10.0 mi SSE 12.7 mph 18.4 mph N/A   Clear
3:53 AM 36.5 °F 28.2 °F 31.8 °F 83% 29.91 in 10.0 mi SSE 12.7 mph 18.4 mph N/A   Clear
4:14 AM 35.8 °F 27.8 °F 31.6 °F 85% 29.91 in 10.0 mi SSE 11.5 mph - N/A   Clear
4:34 AM 35.6 °F 27.1 °F 31.6 °F 85% 29.90 in 10.0 mi SSE 12.7 mph 17.3 mph N/A   Clear
4:54 AM 35.2 °F 25.8 °F 31.6 °F 87% 29.88 in 10.0 mi SSE 15.0 mph 23.0 mph N/A   Clear
5:13 AM 35.2 °F 26.2 °F 31.5 °F 86% 29.89 in 10.0 mi SSE 13.8 mph 21.9 mph N/A   Clear
5:33 AM 35.1 °F 28.6 °F 31.6 °F 87% 29.89 in 10.0 mi SSE 8.1 mph - N/A   Clear
5:53 AM 35.1 °F 27.9 °F 31.5 °F 87% 29.89 in 10.0 mi SSE 9.2 mph - N/A   Clear
6:13 AM 35.1 °F 28.6 °F 31.5 °F 87% 29.90 in 10.0 mi SSE 8.1 mph - N/A   Clear
6:33 AM 35.2 °F 28.8 °F 31.5 °F 86% 29.90 in 10.0 mi SSE 8.1 mph - N/A   Clear
6:53 AM 35.4 °F 28.4 °F 31.5 °F 85% 29.90 in 10.0 mi SSE 9.2 mph 16.1 mph N/A   Clear
7:13 AM 34.9 °F 28.3 °F 31.3 °F 87% 29.90 in 10.0 mi SSE 8.1 mph - N/A   Clear
7:34 AM 34.7 °F 28.1 °F 31.5 °F 88% 29.91 in 10.0 mi South 8.1 mph - N/A   Clear
7:53 AM 34.7 °F 28.8 °F 31.6 °F 89% 29.91 in 10.0 mi SSE 6.9 mph - N/A   Clear
8:13 AM 35.6 °F 28.6 °F 32.0 °F 87% 29.91 in 10.0 mi South 9.2 mph - N/A   Clear
8:34 AM 36.9 °F 29.6 °F 32.0 °F 83% 29.91 in 10.0 mi South 10.4 mph - N/A   Clear
8:54 AM 38.1 °F 32.3 °F 32.7 °F 81% 29.92 in 10.0 mi South 8.1 mph - N/A   Clear
9:13 AM 39.2 °F 31.6 °F 33.1 °F 79% 29.92 in 10.0 mi South 12.7 mph - N/A   Clear
9:33 AM 39.4 °F 33.2 °F 33.3 °F 79% 29.91 in 10.0 mi SSE 9.2 mph - N/A   Clear
9:53 AM 41.0 °F 35.8 °F 34.0 °F 76% 29.92 in 10.0 mi South 8.1 mph - N/A   Clear
10:13 AM 42.1 °F 37.1 °F 34.3 °F 74% 29.92 in 10.0 mi South 8.1 mph - N/A   Clear
10:33 AM 42.6 °F 37.2 °F 34.2 °F 72% 29.91 in 10.0 mi South 9.2 mph - N/A   Clear
10:53 AM 43.7 °F 39.7 °F 34.9 °F 71% 29.92 in 10.0 mi SSW 6.9 mph - N/A   Clear
11:13 AM 45.3 °F 40.6 °F 35.2 °F 68% 29.92 in 10.0 mi WSW 9.2 mph - N/A   Clear
11:33 AM 44.1 °F 40.1 °F 34.5 °F 69% 29.92 in 10.0 mi South 6.9 mph - N/A   Clear
11:54 AM 44.1 °F 41.5 °F 34.3 °F 69% 29.91 in 10.0 mi South 4.6 mph - N/A   Clear
12:13 PM 44.8 °F - 34.5 °F 67% 29.91 in 10.0 mi Calm Calm - N/A   Clear
12:33 PM 45.9 °F - 34.3 °F 64% 29.91 in 10.0 mi Calm Calm - N/A   Clear
12:54 PM 46.9 °F - 34.3 °F 62% 29.91 in 10.0 mi West 3.5 mph - N/A   Clear
1:13 PM 47.8 °F - 34.7 °F 60% 29.91 in 10.0 mi Calm Calm - N/A   Clear
1:33 PM 48.9 °F - 36.0 °F 61% 29.92 in 10.0 mi WNW 3.5 mph - N/A   Clear
1:53 PM 49.8 °F - 36.0 °F 59% 29.92 in 10.0 mi NNW 5.8 mph - N/A   Clear
2:14 PM 50.4 °F - 36.3 °F 59% 29.92 in 10.0 mi NNW 6.9 mph - N/A   Clear
2:32 PM 50.9 °F - 36.1 °F 57% 29.92 in 10.0 mi Calm Calm - N/A   Clear
2:53 PM 51.3 °F - 36.7 °F 57% 29.93 in 10.0 mi NW 6.9 mph - N/A   Clear
3:14 PM 51.1 °F - 36.3 °F 57% 29.93 in 10.0 mi NNW 4.6 mph - N/A   Clear
3:33 PM 50.5 °F - 36.7 °F 59% 29.94 in 10.0 mi NW 5.8 mph - N/A   Clear
3:53 PM 50.2 °F - 36.0 °F 58% 29.94 in 10.0 mi NNW 4.6 mph - N/A   Clear
4:13 PM 49.5 °F - 35.4 °F 58% 29.95 in 10.0 mi NNW 4.6 mph - N/A   Clear
4:33 PM 48.7 °F - 35.2 °F 60% 29.95 in 10.0 mi NNW 3.5 mph - N/A   Clear
4:53 PM 47.5 °F - 35.2 °F 63% 29.95 in 10.0 mi Calm Calm - N/A   Clear
5:13 PM 46.6 °F - 35.2 °F 65% 29.95 in 10.0 mi Calm Calm - N/A   Clear
5:33 PM 44.6 °F 43.1 °F 35.1 °F 69% 29.96 in 10.0 mi North 3.5 mph - N/A   Clear
5:53 PM 42.3 °F 37.3 °F 36.7 °F 81% 29.97 in 10.0 mi NNW 8.1 mph - N/A   Clear
6:13 PM 42.1 °F 36.6 °F 37.0 °F 82% 29.98 in 10.0 mi NNW 9.2 mph - N/A   Clear
6:33 PM 41.5 °F 37.8 °F 36.7 °F 83% 29.99 in 10.0 mi North 5.8 mph - N/A   Clear
6:53 PM 40.6 °F 36.0 °F 36.1 °F 84% 30.00 in 10.0 mi North 6.9 mph - N/A   Clear
7:13 PM 39.9 °F 35.1 °F 35.8 °F 85% 30.00 in 10.0 mi North 6.9 mph - N/A   Clear
7:33 PM 39.2 °F 35.9 °F 35.6 °F 87% 30.01 in 10.0 mi North 4.6 mph - N/A   Clear
7:53 PM 38.5 °F 35.0 °F 35.6 °F 89% 30.01 in 10.0 mi North 4.6 mph - N/A   Clear
8:13 PM 38.3 °F 32.5 °F 35.2 °F 89% 30.01 in 10.0 mi NNE 8.1 mph - N/A   Clear
8:33 PM 37.6 °F 32.3 °F 35.1 °F 91% 30.01 in 10.0 mi NNE 6.9 mph - N/A   Clear
8:53 PM 37.4 °F 32.1 °F 34.9 °F 91% 30.01 in 10.0 mi NNE 6.9 mph - N/A   Clear
9:13 PM 36.9 °F 32.2 °F 34.7 °F 92% 30.02 in 10.0 mi NNE 5.8 mph - N/A   Clear
9:33 PM 36.5 °F 31.8 °F 34.3 °F 92% 30.02 in 7.0 mi NNE 5.8 mph - N/A   Clear
9:53 PM 36.5 °F 31.8 °F 34.0 °F 91% 30.03 in 7.0 mi NNE 5.8 mph - N/A   Clear
10:13 PM 35.6 °F 32.8 °F 33.6 °F 92% 30.03 in 7.0 mi NNE 3.5 mph - N/A   Clear
10:33 PM 35.1 °F 31.0 °F 33.3 °F 93% 30.03 in 7.0 mi NNE 4.6 mph - N/A   Clear
10:53 PM 34.7 °F 30.6 °F 33.1 °F 94% 30.03 in 7.0 mi North 4.6 mph - N/A   Clear
11:13 PM 34.2 °F 30.0 °F 32.9 °F 95% 30.03 in 5.0 mi NNE 4.6 mph - N/A   Clear
11:33 PM 33.8 °F 29.6 °F 32.2 °F 94% 30.03 in 5.0 mi NNE 4.6 mph - N/A   Clear
11:53 PM 33.8 °F 29.6 °F 32.4 °F 94% 30.03 in 5.0 mi NNE 4.6 mph - N/A   Clear